Regional Weather Roundup
Issued by NWS

Home | Current Version | Previous Version | Graphics & Text | Print | Product List | Glossary On
Versions: 1 2 3 4 5 6 7 8 9 10 11 12 13 14 15 16 17 18 19 20 21 22 23 24 25 26 27 28 29 30 31 32 33 34 35 36 37 38 39 40 41 42 43 44 45 46 47 48 49 50
000
ASUS45 KBOI 221810
RWRID

IDAHO REGIONAL WEATHER ROUNDUP
NATIONAL WEATHER SERVICE BOISE ID
1100 AM MST WED NOV 22 2017

NOTE: "FAIR" INDICATES FEW OR NO CLOUDS BELOW 12000 FEET
WITH NO SIGNIFICANT WEATHER AND/OR OBSTRUCTIONS TO VISIBILITY

IDZ012-014-221900-
SOUTHWEST IDAHO


CITY           SKY/WX    TMP DP  RH WIND       PRES   REMARKS
BOISE          CLOUDY    54  50  86 CALM      30.31S
CALDWELL       CLOUDY    52  50  93 S3        30.31F
MOUNTAIN HOME  PTSUNNY   57  57  99 E12       30.32R
$$

IDZ016-017-221900-
SOUTHCENTRAL IDAHO


CITY           SKY/WX    TMP DP  RH WIND       PRES   REMARKS
BURLEY         PTSUNNY   62  46  55 SW5       30.36R
JEROME         PTSUNNY   57  48  72 NE5       30.36S
TWIN FALLS     CLOUDY    65  45  48 SW10      30.36R
$$

IDZ019>023-221900-
SOUTHEAST IDAHO


CITY           SKY/WX    TMP DP  RH WIND       PRES   REMARKS
IDAHO FALLS    PTSUNNY   44  40  85 CALM      30.41S
POCATELLO      CLOUDY    49  44  83 NE6       30.40R
REXBURG        CLOUDY    45  41  86 SW3       30.39F
$$

IDZ006-010-011-018-031-032-221900-
CENTRAL IDAHO MOUNTAINS


CITY           SKY/WX    TMP DP  RH WIND       PRES   REMARKS
MCCALL         LGT RAIN  43  43 100 NE5       30.35R FOG
HAILEY         PTSUNNY   48  43  81 NW5       30.42R
STANLEY          N/A     39  38  96 CALM      30.42S
SALMON         LGT RAIN  40  38  93 CALM      30.39R
CHALLIS        CLOUDY    46  40  79 N3        30.37R
$$

IDZ002-004-006-007-026-221900-
NORTHERN IDAHO


CITY           SKY/WX    TMP DP  RH WIND       PRES   REMARKS
LEWISTON       CLOUDY    53  52  96 CALM      30.16F
LOWELL           N/A     44  43  96 CALM      30.29S
COEUR D`ALENE  CLOUDY    50  49  96 E5        30.15R
MULLAN PASS    LGT RAIN  42  41  96 VRB5      30.21R VSB 1/4
$$



USA.gov is the U.S. government's official web portal to all federal, state and local government web resources and services.